Lid_Strength_Index
4 6 7 6 6 8 9 11 12 9 5 6 7 7 7 6 5 5 5 5 4 4 3 2 2 1 1 1 1 1 1 1 1 1 1 1 1 0 0 -0 -1 -2 -2 -2
6 7 5 5 5 8 8 9 10 6 5 6 6 7 6 6 6 5 5 5 4 4 3 2 2 2 2 1 1 1 1 1 1 1 1 1 1 1 0 -0 -1 -2 -2 -2
7 6 5 5 6 7 7 7 7 8 6 6 6 8 7 6 6 5 4 4 4 4 4 3 3 2 2 2 1 1 1 1 0 -0 0 0 0 -0 1 0 0 -0 -1 -1
6 5 6 6 7 6 8 6 6 7 8 10 6 11 10 9 8 6 5 5 4 4 3 3 3 3 2 2 1 1 1 1 1 0 1 1 2 2 1 1 0 0 -1 -1
7 6 6 7 7 6 7 5 6 7 8 8 8 9 10 9 12 9 6 5 4 4 3 3 3 2 2 1 1 1 1 1 0 1 0 1 1 1 1 1 1 0 -0 -1
6 4 5 6 5 5 5 6 6 7 8 11 8 9 9 9 9 7 7 6 4 4 3 3 2 2 2 1 1 1 1 1 1 1 1 1 1 1 2 1 1 1 1 0
6 6 5 5 6 5 6 7 10 11 11 12 8 9 8 7 6 6 7 6 4 4 4 3 3 3 2 2 2 1 2 2 1 1 1 1 1 1 1 1 1 1 1 1
9 9 7 5 6 7 7 7 10 13 12 11 8 10 8 6 5 4 5 5 4 4 4 3 3 3 2 2 2 2 2 2 1 1 1 1 1 1 1 1 1 1 1 1
9 9 5 5 5 5 7 8 7 9 9 10 9 8 6 6 7 6 4 4 4 4 3 3 3 3 2 2 2 2 2 2 2 1 1 1 1 1 1 0 0 0 0 0
6 9 6 6 5 5 6 6 9 9 12 13 10 9 9 8 8 5 5 4 4 3 3 3 3 3 2 2 2 2 2 2 2 1 1 1 1 1 0 0 0 0 0 0
6 7 7 6 7 7 7 8 7 8 9 12 12 10 6 6 6 6 5 4 3 3 3 3 3 2 2 2 2 2 2 2 2 1 1 1 1 1 1 1 0 0 0 0
5 7 9 8 6 5 6 7 7 10 10 9 10 10 6 5 5 4 4 3 3 3 3 3 3 3 3 2 2 2 2 2 2 1 1 1 1 1 1 1 1 0 0 -0
6 8 10 9 7 6 7 7 7 7 8 9 11 10 5 5 4 4 4 4 4 3 3 2 2 3 3 2 2 2 2 2 1 1 1 1 1 1 1 1 1 1 0 0
3 7 8 10 9 7 8 7 7 7 9 9 9 8 6 6 5 4 4 4 4 3 2 3 3 3 3 2 2 2 2 2 1 1 1 2 1 1 1 1 1 1 0 1
5 8 7 7 7 7 7 8 7 8 8 9 8 8 6 5 5 4 4 4 4 4 3 3 3 3 3 3 2 2 2 2 1 2 2 2 1 1 1 1 1 1 1 1
5 8 7 8 7 7 8 7 7 7 7 7 7 7 5 4 4 4 3 4 5 4 4 3 3 3 3 3 3 2 2 2 1 2 2 2 1 1 1 1 1 1 2 1
6 7 8 10 7 8 9 8 7 7 6 7 8 6 5 5 4 4 4 4 4 4 4 4 3 3 2 2 2 3 2 2 2 2 2 2 1 2 1 1 1 2 2 2
7 7 8 10 8 13 8 5 6 6 6 6 6 6 7 6 4 4 4 5 5 4 4 3 3 3 2 2 2 2 2 2 2 2 2 2 2 2 1 1 2 2 3 3
6 7 8 10 10 9 7 6 6 7 8 5 6 7 7 7 6 6 4 4 4 4 3 3 2 2 2 2 2 2 2 2 2 2 2 2 2 2 2 2 3 3 3 2
5 5 8 9 12 13 8 5 4 5 10 6 6 8 8 7 12 8 4 4 4 3 3 3 2 2 2 1 2 3 3 3 3 2 2 2 2 3 2 2 3 2 2 2
8 8 10 10 11 9 6 5 4 10 10 5 5 6 7 8 6 4 3 3 4 3 3 3 3 3 1 1 2 3 3 3 2 2 2 2 2 2 1 2 2 2 3 3
8 9 10 9 11 12 5 6 8 6 5 5 5 5 5 4 4 4 3 3 4 4 3 3 3 3 2 2 2 3 3 2 2 3 2 2 2 2 2 2 2 3 3 4
9 7 9 8 8 5 4 5 4 4 4 4 4 4 4 4 4 3 4 3 3 3 3 3 3 3 2 2 2 3 2 2 3 3 2 2 3 2 3 4 4 5 3 5
6 5 7 7 5 5 4 4 3 3 4 3 3 3 3 4 3 3 3 3 3 3 3 3 3 3 3 2 2 2 3 3 3 3 3 3 4 4 4 4 4 5 4 5
6 5 7 7 5 5 4 3 3 3 4 3 4 3 3 3 3 3 3 3 3 3 3 3 3 3 3 2 2 2 2 2 3 3 3 4 5 4 4 3 4 4 3 4
5 6 8 8 5 5 5 3 3 3 4 4 4 4 3 2 3 2 3 2 2 3 2 3 3 3 3 2 2 2 2 2 3 4 4 4 5 4 3 3 3 8 6 8